Location: Herm
(49.4830°N, 2.4500°W)
Time: 10:26:17
(UTC+00:00)

Envisat - Pass Details

Date: 07 October 2022
Orbit: 763 x 765 km, 98.2° (Epoch: 01 December)

Event Time Altitude Azimuth Distance (km) Brightness Sun altitude
Rises 04:08:43 0° 29° (NNE) 3,245 7.1 -30.5°
Reaches altitude 10° 04:12:03 10° 51° (NE) 2,312 6.4 -30.0°
Maximum altitude 04:14:59 15° 87° (E) 1,959 5.8 -29.6°
Drops below altitude 10° 04:17:56 10° 123° (ESE) 2,301 5.8 -29.2°
Sets 04:21:12 0° 146° (SE) 3,220 6.3 -28.7°
